Tiempo cada hora Aarau

Hoy, 16 Junio, Miércoles

Tiempo Temperatura Precipitaciones Viento Presión Humedad
00:00 +17°C° 0 mm 0 mps 726 mmHg 78%
01:00 +16°C° 0 mm 0 mps 726 mmHg 79%
02:00 +16°C° 0 mm 0 mps 726 mmHg 80%
03:00 +18°C° 0 mm 1 mps 726 mmHg 81%
04:00 +16°C° 0 mm 1 mps 725 mmHg 82%
05:00 +17°C° 0 mm 0 mps 726 mmHg 79%
06:00 +18°C° 0 mm 0 mps 726 mmHg 76%
07:00 +19°C° 0 mm 0 mps 726 mmHg 73%
08:00 +21°C° 0 mm 0 mps 726 mmHg 66%
09:00 +24°C° 0 mm 0 mps 726 mmHg 59%
10:00 +28°C° 0 mm 1 mps 726 mmHg 52%
11:00 +29°C° 0 mm 1 mps 725 mmHg 47%
12:00 +30°C° 0 mm 1 mps 725 mmHg 43%
13:00 +32°C° 0 mm 1 mps 725 mmHg 39%
14:00 +32°C° 0 mm 1 mps 725 mmHg 38%
15:00 +32°C° 0 mm 1 mps 724 mmHg 38%
16:00 +32°C° 0 mm 1 mps 724 mmHg 38%
17:00 +30°C° 0 mm 1 mps 724 mmHg 48%
18:00 +28°C° 0 mm 1 mps 724 mmHg 58%
19:00 +27°C° 0 mm 1 mps 724 mmHg 68%
20:00 +25°C° 0 mm 1 mps 724 mmHg 71%
21:00 +23°C° 0 mm 1 mps 724 mmHg 74%
22:00 +21°C° 0 mm 1 mps 724 mmHg 77%
23:00 +21°C° 0 mm 1 mps 724 mmHg 79%

Mañana, 17 Junio, Jueves

Tiempo Temperatura Precipitaciones Viento Presión Humedad
00:00 +20°C° 0 mm 1 mps 724 mmHg 81%
01:00 +20°C° 0 mm 1 mps 724 mmHg 83%
02:00 +19°C° 0 mm 1 mps 724 mmHg 84%
03:00 +19°C° 0 mm 1 mps 724 mmHg 86%
04:00 +18°C° 0 mm 1 mps 724 mmHg 87%
05:00 +20°C° 0 mm 1 mps 724 mmHg 83%
06:00 +21°C° 0 mm 1 mps 725 mmHg 79%
07:00 +22°C° 0 mm 1 mps 725 mmHg 74%
08:00 +23°C° 0 mm 0 mps 725 mmHg 67%
09:00 +25°C° 0 mm 0 mps 725 mmHg 60%
10:00 +27°C° 0 mm 0 mps 725 mmHg 53%
11:00 +30°C° 0 mm 1 mps 725 mmHg 49%
12:00 +31°C° 0 mm 1 mps 725 mmHg 45%
13:00 +32°C° 0 mm 1 mps 724 mmHg 41%
14:00 +34°C° 0 mm 2 mps 724 mmHg 40%
15:00 +34°C° 0 mm 2 mps 724 mmHg 39%
16:00 +34°C° 0 mm 2 mps 724 mmHg 38%
17:00 +31°C° 0.1 mm 2 mps 724 mmHg 49%
18:00 +29°C° 0.1 mm 1 mps 723 mmHg 60%
19:00 +27°C° 0.1 mm 1 mps 723 mmHg 70%
20:00 +25°C° 0 mm 1 mps 723 mmHg 74%
21:00 +24°C° 0 mm 1 mps 724 mmHg 79%
22:00 +22°C° 0 mm 1 mps 724 mmHg 83%
23:00 +21°C° 0.4 mm 1 mps 724 mmHg 86%

Pasado mañana, 18 Junio, Viernes

Tiempo Temperatura Precipitaciones Viento Presión Humedad
00:00 +20°C° 0.4 mm 2 mps 725 mmHg 90%
01:00 +19°C° 0.4 mm 2 mps 725 mmHg 93%
02:00 +19°C° 0.1 mm 2 mps 725 mmHg 93%
03:00 +19°C° 0.1 mm 1 mps 725 mmHg 94%
04:00 +19°C° 0.1 mm 1 mps 725 mmHg 94%
05:00 +20°C° 0.1 mm 1 mps 725 mmHg 92%
06:00 +21°C° 0.1 mm 1 mps 725 mmHg 91%
07:00 +20°C° 0.1 mm 0 mps 725 mmHg 89%
08:00 +24°C° 0 mm 1 mps 725 mmHg 78%
09:00 +26°C° 0 mm 1 mps 725 mmHg 67%
10:00 +28°C° 0 mm 1 mps 725 mmHg 56%
11:00 +29°C° 0 mm 1 mps 725 mmHg 52%
12:00 +31°C° 0 mm 1 mps 724 mmHg 48%
13:00 +32°C° 0 mm 1 mps 724 mmHg 45%
14:00 +31°C° 0.2 mm 2 mps 724 mmHg 47%
15:00 +31°C° 0.2 mm 2 mps 724 mmHg 50%
16:00 +31°C° 0.2 mm 2 mps 724 mmHg 52%
17:00 +28°C° 4.3 mm 3 mps 724 mmHg 66%
18:00 +25°C° 4.3 mm 3 mps 725 mmHg 80%
19:00 +21°C° 4.3 mm 4 mps 726 mmHg 94%
20:00 +20°C° 1.4 mm 3 mps 726 mmHg 95%
21:00 +19°C° 1.4 mm 2 mps 727 mmHg 96%
22:00 +19°C° 1.4 mm 1 mps 727 mmHg 96%
23:00 +19°C° 0.2 mm 1 mps 727 mmHg 96%

19 Junio, Sábado

Tiempo Temperatura Precipitaciones Viento Presión Humedad
00:00 +19°C° 0.2 mm 1 mps 727 mmHg 96%
01:00 +18°C° 0.2 mm 1 mps 726 mmHg 96%
02:00 +18°C° 0 mm 1 mps 726 mmHg 96%
03:00 +18°C° 0 mm 1 mps 727 mmHg 95%
04:00 +18°C° 0 mm 1 mps 727 mmHg 95%
05:00 +19°C° 0 mm 1 mps 727 mmHg 94%
06:00 +18°C° 0 mm 0 mps 727 mmHg 92%
07:00 +19°C° 0 mm 0 mps 727 mmHg 91%
08:00 +23°C° 0 mm 1 mps 727 mmHg 81%
09:00 +25°C° 0 mm 1 mps 727 mmHg 71%
10:00 +27°C° 0 mm 1 mps 727 mmHg 62%
11:00 +29°C° 0 mm 1 mps 726 mmHg 56%
12:00 +30°C° 0 mm 2 mps 726 mmHg 51%
13:00 +31°C° 0 mm 2 mps 726 mmHg 45%
14:00 +32°C° 0 mm 2 mps 725 mmHg 44%
15:00 +32°C° 0 mm 2 mps 725 mmHg 43%
16:00 +32°C° 0 mm 2 mps 725 mmHg 42%
17:00 +31°C° 0 mm 2 mps 724 mmHg 51%
18:00 +29°C° 0 mm 2 mps 724 mmHg 60%
19:00 +27°C° 0 mm 2 mps 724 mmHg 70%
20:00 +26°C° 0 mm 2 mps 723 mmHg 75%
21:00 +24°C° 0 mm 1 mps 723 mmHg 80%
22:00 +23°C° 0 mm 1 mps 723 mmHg 86%
23:00 +22°C° 0 mm 1 mps 723 mmHg 87%

20 Junio, Domingo

Tiempo Temperatura Precipitaciones Viento Presión Humedad
00:00 +22°C° 0 mm 1 mps 722 mmHg 88%
01:00 +21°C° 0 mm 1 mps 722 mmHg 90%
02:00 +21°C° 0 mm 1 mps 722 mmHg 90%
03:00 +20°C° 0 mm 1 mps 722 mmHg 90%
04:00 +20°C° 0 mm 1 mps 722 mmHg 90%
05:00 +21°C° 0 mm 1 mps 722 mmHg 87%
06:00 +20°C° 0 mm 0 mps 722 mmHg 84%
07:00 +21°C° 0 mm 0 mps 722 mmHg 81%
08:00 +23°C° 0 mm 0 mps 722 mmHg 75%
09:00 +24°C° 0 mm 0 mps 722 mmHg 69%
10:00 +28°C° 0 mm 1 mps 721 mmHg 64%
11:00 +29°C° 0 mm 1 mps 721 mmHg 61%
12:00 +30°C° 0 mm 2 mps 721 mmHg 58%
13:00 +30°C° 0 mm 3 mps 722 mmHg 55%
14:00 +28°C° 1.6 mm 3 mps 721 mmHg 66%
15:00 +26°C° 1.6 mm 4 mps 721 mmHg 78%
16:00 +23°C° 1.6 mm 5 mps 721 mmHg 90%
17:00 +21°C° 4.7 mm 4 mps 722 mmHg 92%
18:00 +20°C° 4.7 mm 3 mps 722 mmHg 95%
19:00 +19°C° 4.7 mm 1 mps 722 mmHg 98%
20:00 +19°C° 0.1 mm 1 mps 722 mmHg 98%
21:00 +18°C° 0.1 mm 1 mps 722 mmHg 98%
22:00 +18°C° 0.1 mm 1 mps 722 mmHg 98%
23:00 +18°C° 0.4 mm 1 mps 722 mmHg 98%

21 Junio, Lunes

Tiempo Temperatura Precipitaciones Viento Presión Humedad
00:00 +18°C° 0.4 mm 1 mps 722 mmHg 97%
01:00 +16°C° 0.4 mm 0 mps 722 mmHg 97%
02:00 +16°C° 0 mm 0 mps 722 mmHg 97%
03:00 +16°C° 0 mm 1 mps 722 mmHg 97%
04:00 +16°C° 0 mm 1 mps 722 mmHg 97%
05:00 +18°C° 0 mm 1 mps 721 mmHg 96%
06:00 +17°C° 0 mm 0 mps 721 mmHg 95%
07:00 +18°C° 0 mm 0 mps 721 mmHg 94%
08:00 +20°C° 0 mm 0 mps 721 mmHg 84%
09:00 +24°C° 0 mm 1 mps 721 mmHg 75%
10:00 +26°C° 0 mm 1 mps 721 mmHg 66%
11:00 +27°C° 0 mm 1 mps 721 mmHg 62%
12:00 +28°C° 0 mm 1 mps 721 mmHg 58%
13:00 +30°C° 0 mm 1 mps 721 mmHg 53%
14:00 +29°C° 0.4 mm 1 mps 721 mmHg 60%
15:00 +28°C° 0.4 mm 2 mps 721 mmHg 66%
16:00 +27°C° 0.4 mm 2 mps 721 mmHg 72%
17:00 +26°C° 1.5 mm 2 mps 721 mmHg 78%
18:00 +24°C° 1.5 mm 1 mps 721 mmHg 84%
19:00 +23°C° 1.5 mm 1 mps 721 mmHg 90%
20:00 +22°C° 0.6 mm 1 mps 721 mmHg 92%
21:00 +21°C° 0.6 mm 1 mps 722 mmHg 93%
22:00 +20°C° 0.6 mm 1 mps 722 mmHg 94%
23:00 +20°C° 0.5 mm 1 mps 722 mmHg 95%
Mostrar más

Necesitamos Su Consentimiento

Meteoprog y nuestros Proveedores de Servicios pueden almacenar y acceder a sus datos personales como cookies, identificadores de dispositivo u otras tecnologías similares de su dispositivo y procesar dichos datos para personalizar contenido y anuncios, además de ofrecer funciones de redes sociales y analizar el tráfico.

  • Almacenar y/o acceder a información en su dispositivo

    Se puede almacenar o acceder a cookies, identificadores de dispositivo u otra información de su dispositivo para los fines anteriormente indicados.

  • Anuncios y contenido personalizados, medición de anuncios y contenido, percepciones del público, y desarrollo de productos

    Los anuncios y el contenido pueden personalizarse en base a su perfil. Se pueden añadir más datos para personalizar mejor los anuncios y contenidos. Se puede medir el rendimiento de los anuncios y contenidos. Se puede obtener la percepción sobre el público que ha visto los anuncios y contenidos. Dichos datos pueden usarse para desarrollar o mejorar la experiencia del usuario, sistemas y software.

Al hacer clic en ‘Estoy De Acuerdo’ usted permitirá el uso de las cookies, identificadores de dispositivo, balizas web u otras tecnologías similares indicadas. Su configuración puede cambiarse desde el navegador de su dispositivo.

Para ciertos fines, los intereses legítimos pueden ser considerados por encima del consentimiento. Puede leer más sobre ello en nuestra Política de Privacidad y Cookies.